Regional Weather Roundup
Issued by NWS Charleston, SC

Current Version | Previous Version | Graphics & Text | Print | Product List | Glossary On
Versions: 1 2 3 4 5 6 7 8 9 10 11 12 13 14 15 16 17 18 19 20 21 22 23 24 25 26 27 28 29 30 31 32 33 34 35 36 37 38 39 40 41 42 43 44 45 46 47 48 49 50
000 ASUS42 KCHS 211112 RWRCHS REGIONAL WEATHER ROUNDUP NATIONAL WEATHER SERVICE CHARLESTON SC 700 AM EDT FRI JUL 21 2017 NOTE: "FAIR" INDICATES FEW OR NO CLOUDS BELOW 12,000 FEET WITH NO SIGNIFICANT WEATHER AND/OR OBSTRUCTIONS TO VISIBILITY. NOT ALL STATIONS ARE QUALITY CONTROLLED. USE DATA WITH CAUTION... ESPECIALLY DEWPOINT OBSERVATIONS. SCZ027-030-031-034>040-042>050-211200- ...SOUTHEAST SOUTH CAROLINA... CITY SKY/WX TMP DP RH WIND PRES REMARKS N CHARLESTON PTCLDY 72 70 93 S5 30.03R WATERFRONT PRK N/A 77 72 84 VRB2 30.01R JOHNS ISLAND FAIR 73 73 100 CALM 30.03S PINOPOLIS N/A 73 72 94 CALM 29.95R MONCKS CORNER FAIR 70 68 94 CALM 30.03R SUMMERVILLE FAIR 70 70 100 CALM 30.04R BEAUFORT MCAS CLEAR 73 71 93 CALM 30.03R BEAUFORT ARPT FAIR 72 70 94 CALM 30.02S HILTON HEAD IS CLEAR 73 72 94 CALM 30.04R WALTERBORO SUNNY 70 70 100 CALM 30.04R ALLENDALE N/A N/A N/A N/A MISG N/A ...SOUTHERN MIDLANDS AND PEE DEE... CITY SKY/WX TMP DP RH WIND PRES REMARKS GEORGETOWN FAIR 72 72 100 CALM 30.03S FOG KINGSTREE FAIR 70 68 94 CALM 30.02R ORANGEBURG CLEAR 72 70 93 CALM 30.03R BARNWELL FAIR 73 73 100 CALM 30.02R AIKEN FAIR 72 70 94 CALM 30.06R MANNING FAIR 72 72 100 W12 30.02S COLUMBIA PTCLDY 74 70 87 CALM 30.01R SUMTER PTCLDY 73 71 93 CALM 30.00R FLORENCE CLEAR 74 73 97 W3 30.02R MYRTLE BEACH CLEAR 76 75 97 SW5 30.03R N MYRTLE BEACH CLEAR 76 75 97 SW3 30.01R $$ GAZ063-065-086>088-099>101-113>116-118-119-134>141-150-211200- ...SOUTHEAST GEORGIA... CITY SKY/WX TMP DP RH WIND PRES REMARKS SAVANNAH ARPT PTCLDY 74 70 87 S6 30.01F HUNTER AAF CLEAR 71 69 96 CALM 30.01R FORT STEWART CLEAR 71 69 93 CALM 30.01R STATESBORO CLEAR 72 32 23 CALM 30.03R SYLVANIA SUNNY 71 71 100 CALM 30.04R CLAXTON FAIR 71 70 99 CALM 30.03R FOG ...CSRA...CENTRAL AND FAR SOUTHEAST GEORGIA... CITY SKY/WX TMP DP RH WIND PRES REMARKS THOMSON CLEAR 73 71 93 CALM 30.07R AUGUSTA-BUSH CLEAR 73 71 93 CALM 30.01R FOG AUGUSTA-DANIEL CLEAR 76 70 82 CALM 30.03R SWAINSBORO FAIR 72 72 100 CALM 30.03R VIDALIA CLEAR 73 72 94 CALM 30.03R EASTMAN FAIR 74 74 100 CALM 30.04R HAZLEHURST FAIR 74 74 100 CALM 30.02R ALMA CLEAR 71 69 93 CALM 30.02R FOG WAYCROSS CLEAR 73 73 100 CALM 30.03R JESUP NOT AVBL BAXLEY FAIR 72 72 100 CALM 30.02R BRUNSWICK CLEAR 70 70 100 CALM 30.04R SAINT SIMONS CLEAR 74 71 91 CALM 30.03R $$ SCZ027-028-034-036>038-045-046-048>050-GAZ119-141-211200- ...LAKE AND SUPPLEMENTAL COASTAL OBSERVATIONS... STATION/POSITION TIME TEMP WIND PRES WAVE SWELL AIR SEA DIR/SP/G HT/PER HT/PER/DIR (UTC) (F) (DEG/KT/KT) (MB) (FT/S) (FT/S/D) WINYAH BAY 0945 77 260/ 4 1016.0 LAKE MURRAY 1020 78 240/ 3/ 5 1015.2 ACE BASIN NERRS 0945 73 CALM 1016.0 FORT PULASKI 1048 76 85 220/ 2/ 2 1017.1R SAPELO ISLAND 1000 72 CALM 1017.0 $$ ANZ835-935-AMZ111-154-330-350-352-354-370-450-454-472-211200- ...C-MAN AND BUOY OBSERVATIONS... STATION/POSITION TIME TEMP WIND PRES WAVE SWELL AIR SEA DIR/SP/G HT/PER HT/PER/DIR (UTC) (F) (DEG/KT/KT) (MB) (FT/S) (FT/S/D) BUOY 41004 1050 82 83 240/ 10/ 12 1016.4R 3/ 8 2/130/ 8 BUOY 41008 1050 80 82 310/ 2/ 4 1016.4R 2/ 8 2/120/ 8 FOLLY BEACH CMAN 1000 77 300/ 5/ 7 1017.2R CAPERS NEARSHORE 1008 78 83 290/ 12/ 14 1016.3R FRIPP NEARSHORE 1008 80 83 280/ 6/ 8 1016.1R STATION/POSITION TIME TEMP WIND PRES WAVE SWELL AIR SEA DIR/SP/G HT/PER HT/PER/DIR (UTC) (F) (DEG/KT/KT) (MB) (FT/S) (FT/S/D) 5E ST. MARYS GA 1030 82 N/A 2/ 7 FRYING PAN BUOY 1050 82 84 270/ 12/ 16 1016.1R 3/ 7 2/120/ 7 BUOY 41025 1050 82 84 260/ 10/ 14 1015.5R 3/ 4 2/140/ 8 CAPE LOOKOUT NC 1000 80 250/ 9/ 11 1015.4R BUOY 41002 0950 81 83 200/ 8/ 10 1017.3 3/ 8 3/100/ 8 BUOY 41010 1050 80 85 180/ 12/ 16 1017.1S 3/ 8 2/ 80/ 8 ST AUGUSTINE FL 1100 75 82 220/ 3/ 4 1017.2R $$

USA.gov is the U.S. government's official web portal to all federal, state and local government web resources and services.